Wind_Speed
35 34 34 33 33 33 32 29 28 28 29 28 28 27 26 26 24 23 21 20 19 19 19 18 18 18 18 17 17 17 17 17 17 17 17 17 17 17 17 18 18 18 18 18 18 18 18 18 18
36 35 35 35 34 33 31 30 30 30 30 29 28 28 28 27 25 24 22 21 21 21 21 20 20 20 19 19 19 19 18 18 18 18 18 19 19 19 19 19 19 20 20 20 20 20 20 20 20
36 36 36 36 35 33 31 30 30 31 31 30 29 29 29 28 26 25 23 22 22 22 23 23 22 21 21 20 20 20 20 19 19 20 20 20 20 20 21 21 21 21 21 21 22 22 22 22 22
37 37 38 37 35 32 32 31 31 32 32 31 31 30 29 28 27 26 25 24 24 24 24 24 23 23 22 22 22 22 21 21 21 21 21 21 22 22 22 22 22 23 23 23 23 23 23 24 24
37 38 38 37 34 32 32 32 33 33 32 32 32 31 30 29 28 27 26 25 25 25 25 25 24 24 24 24 23 23 23 23 23 23 23 23 23 23 23 23 23 24 24 24 24 25 25 25 25
37 37 37 35 33 33 33 33 34 34 33 32 32 32 31 30 29 29 28 27 26 25 25 25 25 25 25 25 25 25 24 24 24 24 24 24 24 24 24 24 25 25 25 25 26 26 26 27 27
37 37 37 36 35 34 34 34 34 33 32 32 32 32 32 31 30 30 29 28 27 27 26 26 26 26 26 25 25 25 25 25 25 25 25 25 25 25 25 25 25 26 26 26 27 27 27 28 28
37 37 37 35 35 34 35 35 34 34 33 33 32 32 31 31 31 31 30 29 28 28 28 27 27 27 26 26 26 25 25 25 26 26 26 26 26 26 26 26 26 26 27 28 28 29 29 29 30
38 38 36 34 34 34 36 36 35 34 33 33 32 32 31 31 31 30 30 30 29 29 28 28 27 27 27 26 26 26 26 26 26 26 26 26 26 26 27 27 27 27 28 29 30 30 31 31 32
39 38 36 35 35 35 35 36 35 34 33 32 32 31 31 31 30 30 30 30 30 29 29 28 28 28 27 27 27 27 27 27 27 27 27 27 27 27 28 28 28 29 30 31 31 32 33 33 34
39 37 36 36 36 36 35 35 35 34 33 32 32 31 31 30 30 30 29 30 30 30 29 29 28 28 28 28 28 28 28 27 27 27 28 28 28 28 29 29 30 31 31 32 33 34 34 35 36
40 38 37 37 37 37 36 35 35 34 33 33 33 32 32 31 30 29 30 30 30 30 30 30 29 29 29 29 29 29 28 28 28 28 28 29 29 30 30 30 31 32 32 33 34 35 36 36 37
39 38 38 38 38 38 37 36 35 34 33 34 34 34 33 32 31 30 30 30 31 31 31 31 31 30 30 30 30 30 30 29 29 29 29 30 30 30 31 31 32 33 34 34 35 36 36 37 38
39 39 39 39 39 38 38 37 36 34 34 33 33 33 33 32 32 32 31 31 31 31 31 32 32 31 31 31 31 30 30 30 31 31 31 31 31 31 32 33 33 34 34 35 36 36 37 38 38
39 39 39 39 39 38 39 38 36 34 35 34 33 32 32 32 32 32 31 31 31 31 31 32 32 32 32 32 32 31 31 31 32 32 32 32 32 33 33 34 34 34 35 36 37 37 38 38 39
39 39 39 38 39 39 40 38 36 36 36 35 34 33 32 32 32 32 32 31 31 31 32 32 32 32 32 32 32 32 32 32 32 33 33 33 34 34 34 34 35 35 36 37 37 37 38 38 38
40 39 38 38 38 39 40 39 37 38 37 36 35 34 33 32 32 32 33 32 32 31 31 32 32 32 32 32 32 32 32 32 33 33 33 34 34 35 35 35 36 36 36 36 37 37 37 37 37
39 39 38 39 39 39 39 39 38 38 38 37 36 35 34 32 31 32 33 32 32 31 31 32 32 32 31 31 32 32 32 32 33 33 33 34 35 35 35 36 36 36 36 36 36 36 37 37 37
39 39 39 38 38 39 39 39 38 38 38 38 37 36 35 33 32 32 32 32 31 31 30 30 31 31 31 31 31 32 32 32 33 33 33 34 35 35 36 36 36 36 36 36 37 36 36 37 37
39 39 39 38 38 39 39 39 39 38 38 37 37 36 35 34 33 32 32 31 31 30 30 30 30 31 31 31 31 31 32 32 32 33 33 34 35 35 35 36 36 36 36 37 37 37 37 38 39
40 39 39 39 39 39 39 39 39 38 38 37 37 36 35 34 33 33 32 31 31 31 30 30 30 31 31 31 31 31 32 32 32 32 33 34 35 35 36 36 36 36 36 37 37 37 38 39 39
40 39 39 39 39 39 39 40 39 38 38 37 36 35 35 34 34 33 32 32 31 31 31 31 31 31 31 31 31 31 31 31 32 32 33 33 34 35 36 36 36 36 37 37 37 38 39 39 39
39 38 39 39 40 40 39 40 38 38 37 36 36 35 35 35 34 34 33 32 32 32 32 31 31 31 31 31 31 31 31 31 31 32 32 33 34 34 35 36 36 36 36 37 37 38 38 39 39
38 39 39 39 40 41 39 40 39 37 36 36 36 35 35 34 34 34 33 33 32 32 32 32 31 31 31 31 31 31 32 31 31 32 32 33 34 34 35 36 36 36 36 37 37 37 38 38 38
37 38 39 40 41 41 39 40 39 37 36 35 35 35 35 34 34 33 33 33 33 32 32 32 32 32 32 32 32 32 32 32 32 32 33 33 34 34 35 35 36 35 35 35 36 37 37 37 38
35 36 37 39 41 39 38 39 37 36 36 35 34 34 34 34 34 33 33 32 32 32 33 33 33 33 32 32 32 33 33 33 33 33 33 34 34 34 35 35 35 34 34 34 35 36 36 37 37
33 35 36 36 38 39 38 37 36 36 35 35 34 34 34 34 33 33 33 32 32 32 32 33 33 33 33 32 32 33 33 33 34 34 34 34 34 34 34 34 33 34 34 34 35 35 36 36 35
32 33 35 36 37 38 38 37 36 35 34 34 34 34 34 33 33 33 33 33 32 32 32 33 33 33 33 33 33 33 33 33 34 34 33 33 34 33 33 34 34 34 34 35 35 35 35 35 34
32 32 34 35 36 36 36 36 35 35 34 33 33 33 33 33 33 33 33 33 33 33 33 33 32 33 33 33 33 33 33 33 33 33 33 33 33 33 34 34 34 34 34 34 34 34 34 33 33
32 31 32 33 35 35 34 34 33 34 33 33 32 32 32 33 32 32 32 32 32 32 32 32 32 32 32 33 33 33 33 33 33 33 33 33 33 33 33 33 33 33 33 33 33 33 32 32 32
Wind_Direction
232 232 232 232 233 233 234 232 232 232 233 234 236 237 238 240 242 242 240 239 240 242 242 241 241 243 245 247 249 251 254 256 258 260 262 263 264 265 267 270 272 274 276 276 277 278 278 278 279
232 232 232 232 233 233 233 233 231 232 233 234 235 236 237 238 240 241 240 239 238 240 242 242 242 244 246 248 250 253 255 257 259 261 263 264 265 266 268 270 271 273 274 275 276 277 278 279 280
231 231 232 232 233 234 234 233 233 233 234 234 234 235 237 237 238 239 239 239 239 239 241 243 244 246 247 249 252 254 256 258 260 261 263 264 266 267 268 270 271 273 274 275 276 277 278 279 279
231 231 232 232 233 233 233 233 233 234 235 235 235 235 236 237 237 237 237 238 238 239 241 243 245 247 248 250 253 255 257 259 260 262 263 265 266 268 269 271 271 272 273 275 275 276 277 278 279
231 231 232 232 232 231 232 233 233 234 233 234 235 236 236 236 237 237 237 238 238 240 242 244 245 247 250 252 254 255 257 259 261 263 264 265 266 267 269 270 271 272 273 274 275 276 277 277 278
233 232 232 231 231 230 231 232 233 233 233 233 235 236 237 237 237 237 238 239 240 240 242 244 246 249 251 253 254 256 258 260 261 263 263 264 265 267 268 269 271 272 273 274 276 277 277 278 278
234 233 233 231 230 230 231 232 233 234 233 233 234 235 236 237 237 238 238 239 240 241 243 245 247 249 251 253 254 256 257 259 261 262 263 265 266 267 268 270 271 273 274 275 277 278 278 278 278
233 233 232 232 231 230 232 233 233 233 234 234 235 236 236 236 237 238 238 239 240 242 243 245 248 249 251 253 254 255 257 259 260 262 263 265 267 268 269 271 272 274 276 277 278 278 279 278 278
233 233 233 233 232 231 232 233 233 234 235 235 235 236 236 236 236 237 238 239 240 242 244 246 248 250 251 252 254 256 257 259 261 262 264 266 267 269 270 272 273 275 276 277 278 278 279 279 279
234 234 233 233 232 231 232 233 233 233 234 235 234 234 234 235 236 236 237 238 239 241 243 245 247 249 251 253 254 256 258 260 262 263 265 266 268 270 272 273 274 275 276 277 278 278 278 279 279
234 234 232 232 232 231 231 233 233 232 232 233 234 234 234 234 235 236 237 239 240 241 243 245 247 249 251 253 254 256 258 261 262 264 265 267 269 271 272 274 275 277 277 278 279 279 280 280 279
234 233 232 232 232 232 231 231 233 233 232 233 233 234 234 234 234 236 237 239 241 242 243 245 247 249 251 253 255 257 259 261 264 266 267 269 270 272 273 275 276 277 278 279 280 281 282 282 281
233 232 231 231 231 232 231 230 232 232 233 233 233 234 235 235 235 236 238 240 242 243 243 245 248 250 252 254 256 257 260 262 264 267 268 270 272 273 275 276 278 279 280 280 281 282 283 283 282
232 231 230 230 230 231 231 231 231 231 233 233 233 234 236 236 237 238 238 240 242 244 245 246 248 250 252 254 256 259 261 263 265 267 269 270 272 274 276 278 279 280 281 281 282 282 283 282 282
232 230 229 230 229 229 231 231 231 231 233 233 234 235 237 237 238 240 240 242 243 245 246 247 248 250 252 254 257 259 262 264 266 267 268 270 273 275 277 279 280 281 282 283 283 283 283 283 283
231 231 229 228 230 229 231 231 230 231 232 233 235 236 238 238 239 240 242 243 245 247 247 248 248 250 252 254 257 259 262 265 267 268 269 271 274 276 277 279 280 282 282 283 283 283 283 284 284
231 231 230 229 230 231 232 231 230 232 233 233 234 236 238 239 240 241 243 244 246 247 248 249 249 251 252 254 257 259 262 265 267 269 270 272 273 275 277 279 280 281 282 283 283 283 284 284 285
232 232 232 231 231 233 233 232 230 232 233 233 234 236 238 240 241 243 244 245 246 247 248 249 250 251 252 254 257 260 262 265 267 269 270 272 273 275 277 279 280 281 282 282 282 283 284 284 285
232 233 232 232 232 234 233 233 231 232 233 234 235 237 238 239 241 243 244 245 246 248 248 249 250 250 252 255 258 260 263 265 268 270 271 272 274 275 277 278 279 280 281 282 282 283 283 284 286
231 232 232 231 232 234 233 233 232 232 233 234 235 236 238 239 239 241 244 245 246 247 249 250 250 251 253 256 258 261 263 266 268 270 272 274 275 276 277 278 279 280 281 282 282 283 284 286 287
231 232 232 233 233 235 235 233 232 232 234 234 236 236 237 237 238 240 242 244 245 247 248 250 251 252 254 256 258 260 264 266 269 272 274 276 276 277 278 279 279 280 282 283 283 284 286 287 288
231 232 233 234 234 235 235 235 232 233 234 234 235 235 236 237 238 240 241 243 244 246 248 250 251 252 254 256 259 261 264 266 270 273 275 277 277 278 278 279 280 281 282 283 284 285 287 288 289
230 231 233 234 235 236 236 237 233 234 234 234 234 235 235 236 238 239 241 243 244 246 248 250 251 253 255 257 260 262 265 267 270 273 275 277 279 278 278 279 279 281 282 284 285 286 287 288 289
229 229 231 233 234 236 235 238 236 234 234 234 234 234 235 236 238 239 240 242 244 246 248 249 251 253 256 257 260 263 265 268 270 273 275 277 278 278 278 278 279 281 283 285 286 287 288 289 291
229 228 230 232 233 235 235 237 237 235 234 234 234 235 236 236 237 239 241 243 244 246 248 250 252 254 256 258 261 263 266 268 271 273 275 277 277 278 278 279 280 282 284 285 287 288 290 291 293
230 229 231 233 234 235 236 237 235 235 234 234 234 234 235 236 237 238 240 242 244 246 248 250 252 254 257 259 262 264 266 268 271 273 276 277 278 279 278 279 281 282 284 285 287 289 290 292 293
229 229 230 233 235 236 236 236 235 235 235 234 234 234 235 236 237 238 240 242 244 245 247 250 253 256 257 260 262 264 266 268 270 273 276 278 278 279 278 279 281 282 283 285 287 289 291 292 293
228 228 229 230 233 234 235 235 235 234 235 235 235 234 235 236 237 239 240 242 244 246 248 251 253 256 257 260 262 264 266 268 270 273 276 278 279 278 278 279 280 282 283 285 287 289 290 291 292
226 226 227 230 232 233 234 235 235 236 235 235 235 235 235 235 236 238 241 243 245 247 249 251 253 255 257 260 262 264 266 268 270 272 275 277 278 278 278 279 280 282 283 284 286 288 289 290 290
228 228 228 230 232 232 233 235 234 236 236 235 234 233 233 234 235 237 239 242 245 248 250 251 253 255 258 260 262 264 265 268 270 272 275 277 278 278 277 278 279 281 282 284 286 287 288 289 290
Height
5808 5811 5814 5817 5820 5822 5826 5830 5832 5834 5835 5837 5840 5842 5844 5847 5850 5854 5854 5854 5856 5857 5858 5859 5860 5862 5863 5864 5865 5865 5866 5867 5868 5868 5869 5869 5869 5869 5869 5869 5869 5869 5869 5869 5869 5869 5869 5868 5868
5802 5805 5809 5811 5814 5817 5822 5825 5827 5828 5830 5833 5835 5837 5839 5842 5845 5847 5849 5850 5852 5853 5855 5856 5857 5859 5860 5861 5862 5863 5864 5864 5865 5865 5866 5866 5866 5866 5867 5866 5866 5866 5866 5866 5866 5866 5865 5865 5865
5796 5799 5803 5805 5808 5813 5817 5819 5821 5823 5825 5828 5831 5832 5835 5838 5840 5843 5845 5846 5848 5850 5851 5852 5854 5855 5856 5858 5859 5860 5860 5861 5862 5862 5862 5863 5863 5863 5863 5863 5863 5863 5863 5862 5862 5862 5862 5861 5861
5790 5793 5796 5800 5804 5808 5811 5814 5816 5818 5821 5823 5826 5828 5830 5834 5836 5838 5840 5842 5844 5845 5847 5848 5850 5851 5853 5854 5855 5856 5857 5857 5858 5858 5859 5859 5859 5859 5859 5859 5859 5859 5859 5859 5858 5858 5858 5857 5857
5783 5786 5790 5794 5799 5803 5805 5807 5809 5812 5815 5818 5821 5823 5825 5828 5831 5833 5836 5838 5839 5841 5843 5844 5846 5847 5849 5850 5851 5852 5853 5853 5854 5854 5855 5855 5855 5855 5855 5855 5855 5855 5855 5854 5854 5854 5853 5853 5852
5777 5780 5784 5789 5793 5796 5799 5801 5803 5806 5810 5812 5815 5818 5820 5823 5826 5828 5831 5833 5835 5837 5838 5840 5841 5843 5844 5846 5847 5848 5849 5849 5850 5850 5851 5851 5851 5851 5851 5851 5851 5850 5850 5850 5849 5849 5848 5848 5847
5771 5774 5778 5783 5786 5790 5793 5794 5798 5801 5804 5807 5810 5813 5815 5818 5821 5823 5826 5828 5830 5832 5834 5835 5837 5838 5840 5841 5842 5843 5844 5845 5845 5846 5846 5846 5846 5846 5846 5846 5846 5846 5845 5845 5844 5844 5843 5842 5841
5764 5768 5771 5776 5780 5784 5786 5788 5792 5795 5798 5802 5804 5807 5810 5813 5815 5818 5820 5823 5825 5827 5829 5831 5832 5834 5835 5836 5837 5838 5839 5840 5840 5841 5841 5841 5841 5841 5841 5841 5841 5841 5840 5839 5839 5838 5837 5836 5835
5757 5761 5765 5770 5773 5777 5779 5782 5786 5789 5792 5796 5799 5802 5805 5807 5809 5812 5815 5817 5820 5822 5824 5826 5827 5829 5830 5831 5832 5833 5834 5835 5835 5836 5836 5836 5836 5836 5836 5836 5836 5835 5835 5834 5833 5832 5831 5830 5829
5749 5754 5760 5764 5766 5770 5772 5775 5779 5783 5786 5789 5792 5796 5798 5801 5804 5807 5809 5812 5814 5816 5818 5820 5822 5824 5825 5826 5827 5828 5829 5830 5830 5831 5831 5831 5831 5831 5831 5830 5830 5829 5828 5827 5826 5825 5824 5823 5822
5742 5748 5753 5756 5759 5762 5766 5769 5772 5776 5780 5784 5786 5789 5792 5795 5798 5801 5804 5806 5808 5811 5813 5815 5817 5818 5820 5821 5822 5823 5824 5824 5825 5825 5825 5825 5825 5825 5825 5824 5824 5823 5822 5821 5819 5818 5817 5815 5814
5735 5740 5744 5748 5751 5755 5759 5762 5766 5770 5775 5777 5780 5783 5786 5790 5793 5795 5798 5800 5802 5805 5807 5809 5811 5812 5814 5815 5816 5817 5818 5819 5819 5819 5820 5819 5819 5819 5818 5818 5817 5816 5815 5813 5812 5811 5809 5807 5806
5727 5732 5736 5740 5743 5748 5752 5756 5759 5764 5767 5770 5773 5776 5780 5783 5786 5789 5792 5794 5796 5799 5801 5803 5805 5806 5808 5809 5810 5811 5812 5813 5813 5813 5813 5813 5813 5812 5812 5811 5810 5808 5807 5806 5804 5802 5801 5799 5797
5719 5724 5728 5732 5736 5740 5744 5749 5753 5758 5760 5763 5766 5770 5773 5776 5780 5783 5785 5788 5790 5792 5794 5796 5798 5800 5802 5803 5804 5805 5806 5806 5807 5807 5807 5806 5806 5805 5805 5804 5802 5801 5799 5798 5796 5794 5792 5790 5788
5711 5716 5720 5724 5728 5732 5736 5741 5747 5751 5753 5756 5760 5763 5766 5770 5773 5776 5779 5781 5783 5785 5787 5789 5791 5793 5795 5796 5797 5798 5799 5799 5800 5800 5800 5799 5799 5798 5797 5796 5795 5793 5791 5789 5788 5786 5784 5781 5779
5702 5707 5712 5717 5720 5724 5729 5735 5740 5742 5745 5749 5753 5756 5760 5763 5766 5769 5771 5774 5776 5778 5780 5782 5784 5786 5788 5789 5790 5791 5792 5792 5792 5793 5793 5792 5792 5791 5790 5788 5787 5785 5783 5781 5779 5777 5775 5772 5770
5693 5699 5704 5710 5713 5716 5720 5727 5732 5734 5738 5742 5746 5749 5753 5756 5759 5762 5764 5767 5769 5771 5773 5775 5777 5779 5780 5782 5783 5784 5785 5785 5785 5785 5785 5784 5784 5783 5782 5780 5779 5777 5775 5773 5771 5768 5766 5764 5761
5687 5692 5697 5701 5705 5708 5712 5718 5723 5726 5730 5735 5738 5742 5745 5749 5752 5754 5757 5759 5762 5764 5766 5768 5770 5771 5773 5774 5776 5776 5777 5778 5778 5777 5777 5776 5775 5775 5773 5772 5770 5768 5766 5764 5762 5760 5757 5755 5753
5679 5684 5688 5693 5697 5700 5705 5710 5714 5718 5722 5727 5731 5734 5738 5742 5744 5746 5749 5752 5754 5757 5759 5761 5763 5764 5766 5767 5768 5769 5770 5770 5770 5769 5769 5768 5767 5766 5765 5763 5762 5760 5758 5756 5753 5751 5749 5746 5744
5669 5674 5680 5685 5688 5692 5696 5701 5706 5710 5714 5719 5723 5727 5730 5734 5737 5739 5742 5744 5747 5750 5752 5754 5755 5757 5759 5760 5761 5762 5762 5762 5762 5761 5761 5760 5759 5758 5756 5755 5753 5751 5749 5747 5745 5742 5740 5737 5734
5661 5667 5672 5676 5680 5683 5688 5693 5698 5702 5706 5711 5715 5719 5722 5726 5729 5732 5735 5737 5740 5742 5744 5746 5748 5750 5751 5752 5753 5754 5754 5754 5754 5753 5753 5751 5750 5749 5747 5746 5744 5743 5741 5738 5736 5733 5731 5728 5725
5654 5659 5663 5667 5671 5675 5680 5683 5690 5694 5698 5703 5707 5711 5715 5718 5721 5724 5727 5730 5733 5735 5737 5739 5740 5742 5744 5745 5745 5746 5746 5746 5746 5745 5744 5743 5741 5740 5738 5737 5735 5734 5732 5729 5727 5724 5722 5719 5716
5645 5650 5654 5658 5662 5666 5671 5674 5682 5686 5690 5695 5699 5703 5707 5710 5713 5717 5720 5723 5725 5727 5729 5731 5733 5734 5736 5737 5738 5738 5738 5738 5738 5737 5736 5735 5733 5731 5730 5728 5726 5725 5723 5720 5718 5715 5712 5709 5706
5636 5641 5645 5648 5652 5657 5664 5666 5672 5678 5683 5687 5691 5695 5698 5702 5705 5709 5712 5714 5717 5719 5721 5723 5725 5727 5728 5729 5730 5730 5730 5730 5730 5729 5728 5726 5724 5723 5721 5719 5717 5715 5713 5711 5708 5706 5703 5700 5696
5626 5632 5636 5639 5642 5649 5655 5657 5664 5670 5674 5678 5682 5686 5690 5693 5697 5700 5703 5706 5709 5711 5713 5715 5717 5719 5720 5721 5722 5722 5722 5722 5721 5721 5719 5718 5716 5714 5712 5710 5708 5706 5704 5702 5699 5696 5693 5690 5687
5619 5624 5629 5633 5636 5642 5645 5649 5657 5661 5664 5669 5674 5678 5681 5685 5688 5692 5695 5698 5701 5703 5705 5707 5709 5710 5712 5713 5713 5713 5713 5713 5713 5712 5710 5709 5707 5705 5703 5701 5699 5697 5695 5693 5690 5687 5684 5681 5677
5612 5616 5621 5625 5628 5633 5637 5643 5648 5652 5656 5661 5665 5669 5673 5677 5680 5684 5687 5690 5692 5695 5697 5699 5700 5702 5703 5704 5704 5705 5704 5704 5704 5703 5701 5700 5698 5696 5694 5692 5690 5688 5686 5684 5681 5678 5675 5672 5669
5605 5609 5613 5617 5620 5624 5630 5635 5640 5645 5649 5653 5657 5661 5665 5668 5672 5675 5678 5681 5684 5686 5688 5690 5692 5693 5694 5695 5696 5696 5695 5695 5694 5693 5692 5690 5688 5686 5685 5683 5681 5679 5677 5675 5672 5669 5667 5664 5661
5599 5602 5605 5610 5613 5618 5623 5630 5632 5637 5641 5645 5649 5652 5656 5660 5663 5666 5670 5672 5675 5677 5679 5681 5683 5684 5685 5686 5687 5687 5687 5686 5685 5684 5683 5681 5679 5677 5676 5674 5672 5670 5668 5666 5663 5661 5658 5656 5653
5591 5595 5599 5604 5607 5611 5615 5623 5624 5629 5633 5636 5640 5644 5648 5651 5655 5658 5661 5664 5666 5669 5670 5672 5674 5675 5676 5677 5677 5677 5677 5677 5676 5675 5673 5672 5670 5668 5666 5665 5663 5661 5659 5657 5655 5652 5650 5647 5645